Back to catalog

HAWK-11B

AliveScienceVLEO
NORAD 62379·PAYLOAD·🇺🇸 United States

Launched Dec 21, 2024 from Vandenberg Space Force Base

Loading…

Next Passes (next 24 hours)

TLE

FreshSource: Space-Track

Epoch: Sep 13, 2026, 18:50 UTC

1 62379U 24247C   26256.78529372  .00005299  00000-0  18154-3 0  9997
2 62379  45.0146 163.7703 0002282  12.0045 348.0894 15.31354779 96581

Track HAWK-11B in real time with AllMySat

Download on the App Store